Вернуться в каталог

ET-001B

АктивенSSO
NORAD 69941·PAYLOAD·🇺🇸 United States

Запущен Jul 7, 2026 с Vandenberg Space Force Base

Loading…

Ближайшие Пролёты (ближайшие 24 часа)

TLE

СвежийSource: Space-Track

Эпоха: Sep 13, 2026, 15:59 UTC

1 69941U 26156CA  26256.66652420  .00005481  00000-0  53752-3 0  9994
2 69941  97.7429 156.0168 0006466 294.0068  66.0474 14.92613451 10191

Отслеживайте ET-001B в реальном времени с AllMySat

Download on the App Store